Location: DARK SKY Beskydy - Park tmavé oblohy, www.darkskybeskydy.cz
(49.4926°N, 18.5016°E)
Time: 04:23:43
(UTC+01:00)

Envisat - Pass Details

Date: 10 December 2022
Orbit: 763 x 765 km, 98.2° (Epoch: 05 February)

Event Time Altitude Azimuth Distance (km) Brightness Sun altitude
Rises 05:56:45 0° 1° (N) 3,245 6.1 -14.4°
Reaches altitude 10° 06:00:02 10° 339° (NNW) 2,313 5.1 -13.9°
Enters shadow 06:01:10 13° 327° (NNW) 2,108 4.8 -13.7°
